Theta_e
326 325 324 323 324 324 324 324 324 323 323 324 324 324 325 325 325 325 325 325 325 326 326 327 328 329 329 330 330 330 331 331 331 331 331 331 331 331 331 330 330 330 330 329 329 328 328 328 327 327 327 328 328 326 326 328 330 331 330 330 330 328 328 330 331 330 329 328 328 331 333 334 333 334 334 335 335 334 334 335 334 332 330 329 329
326 325 324 324 325 324 323 322 321 321 322 324 325 325 325 325 324 324 324 324 324 324 324 326 328 329 329 330 330 330 330 330 330 330 331 331 331 331 331 331 331 331 330 329 328 328 328 328 327 326 326 326 328 328 326 326 329 331 331 330 329 328 328 329 331 332 331 328 325 326 331 333 334 334 334 335 335 335 335 334 333 331 329 329 329
325 325 323 323 323 322 321 320 319 320 322 324 325 324 324 325 324 323 323 322 323 323 323 324 325 327 328 328 329 329 329 329 330 330 330 330 330 330 330 330 331 331 331 330 329 329 329 328 328 328 327 326 327 328 327 324 326 329 331 331 331 331 330 329 330 332 333 332 328 325 327 332 334 334 334 335 334 335 335 333 331 330 328 328 329
325 324 322 322 321 321 321 320 318 319 321 322 322 322 323 323 323 323 322 321 321 321 321 322 322 324 325 326 327 328 328 329 329 330 330 330 330 329 329 329 330 331 331 331 330 330 330 330 329 329 329 327 327 329 328 325 324 326 329 331 332 332 331 328 327 329 332 333 330 327 326 329 333 335 334 334 334 334 334 331 329 328 327 328 328
324 323 322 322 321 321 321 320 319 319 320 319 320 320 320 321 321 321 321 321 321 321 321 322 322 323 323 324 325 326 328 328 329 329 330 329 329 329 329 329 329 330 330 330 330 331 330 330 330 330 330 328 326 328 329 328 325 325 327 330 332 332 332 330 328 328 330 330 329 328 327 328 332 334 334 334 334 333 332 329 328 327 327 328 327
323 323 322 321 320 321 321 320 319 319 319 318 319 318 318 318 318 319 319 320 321 321 322 322 322 322 323 323 323 324 325 326 327 328 329 329 329 329 329 329 329 330 330 330 330 330 330 330 330 330 331 330 327 328 330 329 327 326 328 330 331 332 332 332 331 330 330 330 328 328 328 329 332 333 333 334 333 333 332 328 326 327 327 326 325
322 321 321 320 320 320 320 319 319 319 318 318 318 318 317 317 317 318 318 320 321 322 322 322 322 322 322 322 322 322 322 322 323 324 325 326 326 327 328 329 329 330 330 331 330 330 330 330 330 331 331 331 329 328 330 330 328 327 327 329 331 332 333 333 332 332 331 330 328 327 327 329 332 332 332 333 333 332 331 328 326 325 325 323 323
321 320 320 319 320 320 319 319 319 318 318 318 318 317 317 317 318 319 319 320 321 322 322 321 321 321 321 321 320 320 319 319 320 321 321 322 322 323 324 325 326 328 329 330 330 330 330 331 330 330 331 331 331 330 330 331 330 328 327 327 329 331 333 332 332 333 332 328 326 326 325 326 329 331 332 332 332 330 329 328 327 325 324 323 322
320 320 320 319 319 319 318 318 318 318 318 317 317 317 317 318 319 320 320 320 320 320 319 319 319 319 319 319 319 318 317 317 318 319 320 320 320 319 319 320 321 322 323 324 325 326 328 329 330 330 330 330 331 332 332 332 331 330 328 325 326 328 331 331 331 333 332 327 324 325 325 325 326 330 331 331 331 330 328 327 326 325 323 322 321
322 321 320 319 319 318 318 318 318 317 317 317 316 316 317 318 318 318 319 318 318 318 317 317 316 316 316 316 316 316 316 316 317 318 318 318 319 318 318 318 318 318 319 319 320 320 322 324 327 330 330 330 331 332 332 332 332 332 330 327 325 327 329 330 331 332 331 327 324 324 326 326 325 329 331 331 330 329 328 327 326 325 323 321 320
322 321 321 320 319 318 318 318 317 317 317 316 317 317 317 317 318 318 318 317 316 316 316 315 315 314 314 313 313 314 314 315 316 317 317 317 318 318 318 318 318 318 318 318 318 318 318 319 321 325 328 330 330 330 331 332 332 332 332 330 327 328 329 330 331 332 331 329 324 324 327 326 325 329 332 331 330 329 328 326 326 325 323 321 320
322 321 320 319 319 318 318 317 317 317 316 316 316 317 317 317 317 317 316 315 315 314 314 314 313 313 312 312 312 313 314 315 315 316 316 317 317 317 317 317 317 318 318 317 317 317 317 318 318 319 322 325 327 329 330 331 331 331 332 331 329 329 329 329 330 330 331 329 325 325 328 326 325 330 331 331 331 329 326 325 325 325 323 322 320
322 321 320 319 318 318 317 317 316 316 316 316 316 316 316 316 316 316 315 314 314 313 313 313 312 312 312 311 311 313 314 314 314 315 315 315 316 317 317 317 317 317 317 316 316 316 317 318 318 318 319 321 324 326 328 330 331 331 331 332 331 329 328 328 328 329 330 329 326 326 328 326 326 329 331 331 331 328 325 325 325 325 322 320 318
322 321 319 318 318 318 317 317 316 316 316 316 316 316 315 315 315 314 314 313 313 313 312 312 312 311 311 311 312 313 314 313 312 313 314 314 315 316 317 318 319 318 318 318 317 318 319 319 320 319 319 320 321 324 326 328 329 329 330 331 331 331 329 328 328 329 331 329 325 326 327 326 326 329 330 331 331 329 327 326 326 324 319 317 316
321 321 319 318 318 317 317 316 315 315 315 315 315 315 315 315 314 314 313 313 313 312 312 311 311 310 310 310 312 313 314 312 311 312 313 312 313 314 315 317 318 319 320 321 321 321 322 323 322 321 320 320 320 321 323 326 328 328 329 330 330 331 330 329 330 331 330 327 326 327 328 327 327 328 329 331 329 328 326 325 323 320 316 315 315
321 320 319 318 318 317 316 315 315 315 315 315 315 315 314 314 313 313 312 312 312 312 311 311 310 309 309 310 311 313 314 313 311 311 311 311 311 312 313 315 317 318 320 321 321 322 323 324 324 323 321 320 320 320 323 327 329 328 328 329 329 331 331 330 331 331 329 326 328 330 329 328 329 329 329 329 327 325 324 322 320 318 316 315 314
320 320 319 318 317 316 315 315 315 314 314 314 314 314 314 313 313 312 312 312 312 311 311 310 309 309 310 312 312 313 313 312 310 310 310 309 309 310 311 313 315 318 319 320 320 321 321 322 324 324 323 321 322 325 327 329 329 328 328 328 329 331 331 331 331 330 329 328 330 331 329 329 329 328 327 327 325 325 324 322 320 319 318 315 313
319 319 318 317 316 315 314 314 314 314 314 313 313 313 313 313 313 313 312 312 312 311 310 310 309 309 310 312 313 313 312 310 309 309 309 309 309 309 309 311 313 316 318 319 319 320 320 320 322 324 325 325 326 327 328 328 328 328 328 328 329 330 331 331 331 330 329 329 330 330 329 328 327 327 326 325 325 324 323 322 321 319 316 313 311
319 318 318 316 315 315 314 314 314 313 313 313 313 313 313 313 313 312 312 312 312 311 310 310 309 309 309 310 311 311 311 309 308 308 308 308 308 308 308 309 311 313 315 317 319 320 320 321 322 322 324 326 327 327 327 328 328 329 328 328 329 330 331 332 331 330 330 329 328 329 328 326 326 326 325 324 323 322 321 319 317 315 313 311 309
318 317 317 315 315 314 314 314 313 313 313 312 312 313 313 313 313 312 312 312 311 311 310 309 309 309 309 310 310 311 311 309 307 307 308 308 308 308 308 309 310 310 312 315 318 319 320 321 322 323 323 325 326 326 326 327 327 327 326 327 329 330 331 332 330 329 328 327 327 328 327 325 324 324 322 321 321 319 317 315 312 310 309 309 308
317 316 316 315 314 314 313 313 313 312 312 312 312 313 313 313 313 312 312 311 311 310 310 309 309 309 310 311 311 311 311 310 308 307 307 307 308 307 308 309 309 310 312 315 316 318 320 321 321 323 324 325 325 325 325 325 325 324 323 324 327 329 329 330 329 328 327 326 325 324 323 321 320 319 318 317 317 315 312 310 309 308 307 307 307
316 316 315 314 314 313 313 313 313 312 313 313 313 313 312 312 312 311 311 311 310 309 309 308 308 309 310 311 311 311 311 311 309 308 307 307 307 308 308 309 309 310 313 314 314 315 317 319 320 321 322 323 323 323 323 323 323 322 322 324 326 327 326 326 326 325 324 323 321 320 318 317 316 314 313 313 311 309 308 307 306 306 306 306 306
316 315 314 314 314 313 313 313 312 312 313 313 313 313 312 312 311 311 310 309 309 309 308 307 308 310 311 311 311 311 311 310 309 308 307 307 307 308 308 309 309 310 311 312 312 312 314 317 319 319 320 321 321 321 320 321 321 321 322 324 325 325 323 321 320 319 318 318 317 316 314 313 312 312 311 309 306 305 304 304 305 305 305 305 305
315 314 314 314 313 313 313 313 313 312 312 312 312 312 311 311 310 309 309 309 309 309 308 307 308 310 311 311 311 310 309 308 308 308 308 308 308 308 309 309 309 309 309 310 311 311 313 315 317 318 319 319 319 317 316 316 317 318 319 320 322 322 320 317 316 317 316 314 313 313 312 311 310 308 306 304 303 302 302 302 303 303 302 302 301
314 314 314 314 313 313 313 313 313 312 312 312 312 311 310 310 309 308 308 308 309 309 308 307 308 309 310 310 309 307 306 307 308 308 308 308 308 309 309 309 309 310 310 310 310 311 312 313 315 318 318 317 316 315 314 314 314 315 315 316 316 316 316 315 315 314 314 313 313 312 309 307 304 303 302 302 301 301 300 300 299 299 298 298 297
314 314 314 314 313 313 313 313 313 312 312 312 311 310 310 309 309 308 308 308 308 308 308 308 308 308 308 308 307 305 305 307 308 308 308 308 308 309 310 310 310 311 311 311 311 311 311 312 314 317 317 316 315 315 314 314 313 313 313 313 313 314 314 314 314 313 313 312 310 307 305 302 301 300 300 300 299 298 298 297 297 296 296 296 296
314 314 314 314 313 313 313 313 312 312 311 311 310 310 309 309 309 308 308 308 308 308 308 309 309 308 308 307 307 306 306 307 309 309 307 307 308 310 310 310 310 312 313 313 312 312 312 312 314 316 317 316 315 314 314 314 312 311 311 309 308 309 309 310 310 311 310 307 305 303 303 302 300 299 298 297 297 296 296 296 296 295 295 296 297
315 314 314 314 314 313 313 312 312 311 311 310 309 309 308 309 309 309 308 309 309 308 308 308 308 308 307 307 307 306 306 308 309 308 307 307 309 310 311 311 311 312 313 313 313 312 312 313 314 315 316 316 315 314 314 313 311 309 308 305 304 305 305 305 306 306 305 304 303 303 303 302 299 296 296 296 296 296 296 297 297 297 297 298 299
315 315 314 314 314 314 313 312 311 311 310 309 308 308 308 309 309 309 308 309 309 309 309 309 308 308 308 308 308 307 308 309 309 307 305 307 309 311 311 312 312 313 313 313 312 312 312 312 313 313 314 315 315 313 312 311 309 307 306 306 305 306 306 305 305 305 305 305 305 304 304 303 300 297 297 297 297 297 297 297 298 298 299 300 300
315 314 314 314 314 314 313 312 311 310 309 308 308 308 308 309 309 309 309 308 309 309 309 309 309 308 308 308 308 308 308 309 308 305 305 307 310 311 312 312 313 312 312 311 311 311 312 312 312 312 312 314 314 312 311 311 309 306 305 306 307 307 307 306 306 306 306 305 305 304 303 302 299 297 298 299 299 299 298 297 298 299 300 300 300
314 314 314 314 314 314 313 311 310 309 308 308 308 308 308 309 309 309 309 308 309 309 309 309 309 309 308 308 308 307 308 308 306 305 306 308 310 311 312 312 312 311 311 310 310 310 311 311 311 312 313 313 313 312 311 310 308 306 306 306 307 307 307 307 306 306 306 305 304 302 301 300 299 299 301 302 302 302 301 299 298 299 300 300 299
315 315 314 314 314 313 312 310 309 308 308 308 308 308 308 309 309 309 309 309 309 309 309 309 309 309 308 308 308 307 308 307 305 305 307 309 310 311 311 311 311 311 310 309 309 310 310 310 311 312 312 312 312 311 309 308 307 306 306 307 307 307 307 307 306 306 305 304 303 302 301 302 302 302 303 303 303 303 302 300 300 299 299 299 299
315 315 314 314 313 312 310 309 308 308 308 308 309 308 308 309 309 309 309 308 308 309 309 309 309 309 309 308 308 307 307 306 305 305 308 309 310 311 311 311 310 309 308 308 309 309 308 308 309 311 312 311 310 309 307 306 306 307 307 307 307 307 306 306 306 305 304 304 304 303 303 304 304 304 304 304 304 303 303 302 301 300 299 299 299
315 315 314 314 312 311 310 309 308 308 308 308 308 308 308 309 309 309 308 308 309 309 309 309 309 309 308 307 307 307 307 306 305 305 307 309 310 310 311 310 308 307 307 308 307 306 306 305 305 306 308 309 308 306 306 306 306 306 306 306 306 306 306 305 305 304 304 304 304 304 305 305 304 304 304 304 304 304 303 302 301 301 301 300 300
315 315 314 314 313 311 310 309 309 308 308 308 308 307 307 308 309 309 309 309 309 309 309 309 308 308 307 306 306 306 307 307 306 306 307 308 309 309 310 309 307 306 306 306 304 303 302 302 301 302 304 305 305 305 305 306 305 305 305 305 305 306 306 305 305 305 304 304 304 304 304 304 304 305 304 304 304 304 303 302 302 302 302 302 301
315 315 314 314 312 311 310 309 309 308 308 308 308 308 308 308 308 308 309 309 309 310 310 309 308 306 306 305 305 305 306 307 307 306 306 307 308 308 309 309 306 304 304 303 301 300 301 301 302 302 302 303 304 304 305 305 305 304 304 304 304 305 305 305 305 305 305 304 303 304 304 304 304 304 304 304 304 304 304 303 303 303 302 302 302
315 314 314 313 311 310 310 310 309 309 308 308 308 308 308 307 308 308 309 309 309 310 310 308 307 306 305 304 303 303 304 307 308 307 305 306 307 307 308 308 306 303 302 301 300 301 302 303 304 305 304 304 305 305 305 306 306 305 305 305 305 305 305 305 306 306 305 305 304 304 304 304 304 304 304 304 304 304 304 304 304 304 303 303 302
314 314 313 312 311 310 310 310 309 309 309 308 308 308 307 307 307 308 308 309 310 310 309 308 306 306 306 304 302 301 302 305 308 307 306 304 305 306 307 308 305 301 300 301 301 303 304 306 307 307 306 306 307 307 307 307 306 306 306 306 306 306 306 306 306 305 306 306 305 305 305 304 304 304 305 304 304 304 304 305 304 304 304 304 303
314 313 312 311 311 311 311 310 309 309 308 308 308 308 308 307 307 307 308 309 310 309 308 307 306 307 306 304 302 300 301 303 306 307 306 304 303 304 305 306 304 301 300 301 303 304 306 307 307 307 307 307 307 307 307 307 307 306 306 306 306 306 306 306 306 306 306 306 306 305 305 305 305 305 304 304 305 304 305 305 304 304 304 304 304
314 313 312 311 311 311 310 310 310 309 308 308 308 308 308 308 307 307 308 309 310 309 308 307 307 308 307 305 302 300 299 300 302 304 304 303 302 302 302 303 303 301 300 301 303 306 307 308 307 307 307 307 307 307 307 307 307 306 306 307 306 306 306 306 306 306 306 306 306 306 306 305 305 305 305 305 305 304 305 305 305 304 304 304 304
314 313 312 311 311 311 310 310 310 309 309 309 308 308 308 308 307 307 308 309 309 309 308 308 308 308 307 306 304 301 299 298 299 302 302 301 301 301 300 301 301 301 301 302 304 306 307 308 307 307 307 307 307 307 307 307 307 306 306 306 306 306 306 306 306 306 306 306 306 306 305 305 305 305 305 305 305 305 304 304 304 304 304 304 304
313 312 312 311 311 311 311 311 310 310 309 309 309 308 308 308 307 307 308 308 309 309 309 308 308 308 307 307 305 303 301 299 298 299 300 299 299 300 300 300 301 302 303 303 303 305 307 308 308 307 307 307 307 307 307 307 307 306 306 307 307 307 307 307 307 307 306 306 306 306 306 305 305 305 305 305 305 304 304 304 304 304 304 304 304
313 313 312 312 312 312 311 311 311 310 309 309 309 309 309 308 308 307 308 308 308 308 308 308 308 308 308 307 306 305 304 302 300 299 298 297 298 299 300 301 303 303 303 303 303 303 305 307 307 307 307 307 307 307 307 307 307 307 307 307 307 307 307 307 307 307 306 306 306 306 306 306 306 305 305 305 305 304 304 304 304 303 303 303 303
313 313 313 312 312 312 312 311 311 310 310 309 309 309 309 308 308 308 307 307 307 308 308 308 308 308 308 308 306 305 305 305 304 303 301 299 298 299 301 302 304 304 303 303 303 302 303 305 307 307 307 307 307 307 308 308 308 307 307 307 307 307 307 307 307 307 307 306 306 306 306 306 305 305 305 304 304 304 304 304 303 303 303 303 302
314 313 313 313 312 312 312 312 311 311 310 309 309 309 309 308 308 308 308 308 307 307 307 308 308 308 308 308 307 307 306 306 306 306 305 303 301 300 301 302 303 304 304 303 303 302 302 304 306 307 306 306 307 307 308 308 308 308 308 307 307 307 307 307 307 307 306 306 306 305 305 304 304 304 304 303 303 302 302 302 302 302 301 300 299
315 314 314 313 313 312 312 312 311 311 310 310 309 309 309 308 308 308 308 308 308 307 307 307 307 308 308 308 308 307 307 306 306 306 306 306 305 304 303 302 303 304 304 304 304 303 302 303 306 306 306 306 307 307 308 308 308 308 307 307 307 307 308 307 307 307 306 306 305 305 305 305 305 304 303 303 302 302 301 301 300 300 300 299 299
316 315 315 314 314 313 313 312 312 311 311 310 310 310 309 309 309 308 308 308 308 308 307 307 307 307 307 307 307 308 308 307 307 307 307 306 306 306 306 305 304 303 303 304 304 304 303 303 304 304 305 306 307 308 308 308 308 308 307 307 307 307 307 307 307 307 307 306 306 306 306 306 306 305 305 304 304 303 303 302 302 302 302 302 302
316 316 315 315 314 314 313 312 312 311 311 310 310 310 310 309 309 309 308 308 308 308 308 308 307 307 307 307 307 307 308 308 307 307 307 307 307 306 306 306 306 305 304 304 304 304 304 304 304 303 303 305 307 308 308 308 308 308 308 307 307 307 308 307 307 307 307 307 307 306 306 307 307 306 306 305 305 305 305 305 305 305 304 304 304
317 316 316 315 315 314 313 313 312 312 311 311 310 310 310 310 309 309 309 309 308 308 308 308 308 307 307 307 307 307 307 307 307 307 307 307 307 307 307 306 306 306 306 305 305 304 304 304 304 304 303 305 307 308 308 308 308 308 308 307 307 307 307 307 307 307 307 307 307 307 307 307 307 306 306 306 306 306 306 305 305 305 305 304 304
317 317 316 316 315 315 314 313 312 312 312 311 311 310 310 310 310 310 309 309 309 308 308 308 308 308 307 307 307 307 307 308 308 307 307 307 307 307 307 307 306 306 306 306 306 306 305 304 304 304 304 305 307 308 308 308 308 308 308 308 308 307 307 307 307 307 307 307 307 307 307 307 307 306 306 306 306 306 306 306 305 305 305 304 304
318 317 317 316 316 315 315 314 313 312 312 312 311 311 311 310 310 310 310 310 309 309 308 308 308 308 308 308 308 308 308 308 308 308 307 307 307 306 306 306 307 306 306 306 306 306 306 305 305 305 305 306 307 307 307 307 308 308 308 308 308 307 307 308 308 307 307 307 307 307 307 307 306 306 306 306 306 306 306 306 305 305 304 304 303
Wind_Speed
23 22 20 19 18 18 19 19 18 17 17 17 16 15 15 15 15 15 15 15 15 15 16 17 18 18 19 19 19 18 18 18 19 19 20 20 20 20 21 22 25 27 28 29 30 30 30 30 30 29 28 28 27 25 25 27 27 26 25 24 23 23 21 20 20 18 17 17 17 16 15 14 15 16 16 16 16 15 14 13 11 9 9 8 7
25 22 19 18 18 18 17 16 15 15 16 16 16 15 15 15 15 15 15 15 15 15 15 15 16 17 17 18 19 19 19 19 19 19 19 20 20 20 20 21 22 24 26 28 29 29 30 31 31 31 30 29 29 28 26 26 28 28 26 25 24 23 22 21 20 19 18 19 20 19 17 16 16 16 16 17 17 15 15 14 12 12 11 8 7
24 21 19 18 17 15 13 12 12 13 14 15 15 15 15 14 14 15 16 16 16 16 16 16 16 16 17 18 19 20 20 20 20 21 21 21 21 22 22 21 22 22 24 26 27 28 29 31 31 31 31 30 31 30 27 26 28 29 27 25 24 23 22 22 21 20 19 19 20 21 20 18 17 16 16 16 16 16 15 13 12 12 11 9 8
24 21 20 18 16 13 12 11 11 11 12 13 14 14 15 15 15 15 15 15 16 17 17 17 17 17 17 18 18 19 20 21 22 23 23 23 23 23 23 23 23 23 23 24 25 26 28 30 30 30 30 31 31 31 29 28 28 29 28 26 25 24 23 23 23 21 20 20 20 21 22 20 18 17 18 17 16 16 14 13 12 12 11 10 10
25 23 22 20 16 14 14 12 11 11 12 12 13 14 14 15 16 16 16 16 16 17 17 17 17 17 17 17 18 19 19 21 22 23 24 24 24 24 24 24 24 25 25 24 24 25 27 28 29 28 28 30 31 31 30 29 28 28 29 27 26 25 23 24 24 22 22 22 21 20 20 20 18 17 18 18 18 17 15 14 13 12 12 12 12
26 25 25 21 17 17 17 15 13 13 14 13 13 14 15 17 17 18 18 17 16 17 17 18 18 17 17 18 18 19 20 21 22 24 25 25 26 26 26 25 25 24 25 25 25 25 26 27 27 27 27 29 30 30 30 30 29 28 29 28 27 25 24 25 25 24 23 24 24 22 20 20 18 17 18 19 20 19 18 16 15 14 14 14 12
26 25 24 21 20 21 19 17 16 15 14 13 14 15 16 17 18 19 19 18 16 17 17 17 18 18 18 18 19 20 21 22 23 24 25 26 27 27 27 27 26 25 24 24 24 25 25 26 26 26 27 28 29 29 29 30 29 29 29 29 28 27 26 27 27 26 25 24 25 24 22 21 19 17 18 20 20 19 19 19 18 16 15 12 10
25 24 23 22 23 23 20 18 17 16 15 15 16 16 16 17 17 17 17 17 16 16 16 16 16 17 18 19 20 20 21 22 22 23 25 26 27 27 26 26 27 27 26 25 25 25 25 25 26 27 28 29 29 30 30 30 30 30 30 30 30 30 29 29 29 28 27 26 25 25 23 22 20 18 21 23 22 19 19 19 18 16 14 12 10
26 24 22 22 23 23 21 19 18 18 18 18 17 16 15 14 14 15 15 15 15 16 15 15 15 16 18 19 21 21 22 22 22 22 23 24 25 25 25 25 26 28 28 28 28 27 26 26 26 26 28 29 30 31 32 32 32 33 33 33 33 33 32 30 29 28 29 28 26 25 24 23 22 21 24 25 23 22 21 20 18 16 14 12 11
28 26 24 24 25 24 23 22 21 20 19 18 16 14 13 12 13 14 14 13 14 15 15 16 17 18 19 21 22 23 22 21 21 21 22 23 24 25 25 25 26 28 29 30 30 29 29 29 28 27 27 28 30 32 33 34 35 34 34 34 34 34 33 31 29 29 30 29 27 26 26 24 23 24 26 26 24 24 24 22 20 18 16 14 12
29 29 28 28 28 27 25 23 21 20 18 17 15 14 13 13 14 14 14 13 13 14 16 18 20 21 22 23 24 24 23 21 20 20 20 21 22 23 25 26 27 29 30 32 32 32 31 31 30 29 28 28 28 30 32 33 35 35 35 35 35 35 34 32 30 30 31 30 28 28 28 25 23 25 28 28 26 27 27 25 22 21 19 16 14
30 32 31 30 30 28 25 22 20 19 18 16 14 14 13 14 14 14 13 13 14 15 17 20 23 24 24 24 24 22 21 20 20 20 19 19 20 21 22 25 27 29 31 33 34 33 32 31 31 31 31 31 29 29 30 31 32 34 35 36 36 36 35 34 34 33 32 31 30 30 30 27 24 26 30 30 30 30 28 24 22 21 20 18 16
31 33 32 31 30 26 23 21 20 19 18 15 14 14 14 15 15 15 15 16 17 18 20 22 24 25 25 24 22 19 18 18 18 17 16 16 16 17 18 21 23 26 29 32 33 33 32 32 32 32 33 33 32 31 30 30 30 30 32 35 38 38 37 37 36 35 34 34 33 32 32 28 25 27 30 31 32 31 26 23 22 21 19 18 16
32 34 34 31 29 26 23 21 20 19 17 16 15 15 15 16 16 16 17 18 19 20 22 23 24 24 23 22 20 18 16 16 15 14 14 13 13 14 15 17 19 21 24 28 30 32 31 32 34 34 34 33 33 33 32 32 31 31 32 34 37 39 40 38 37 37 36 34 33 33 32 27 25 27 29 32 33 31 26 22 22 21 19 17 15
33 36 36 32 28 25 23 22 21 20 18 17 16 16 16 17 17 17 17 18 19 21 22 23 24 24 22 20 19 18 17 17 15 13 13 12 11 12 14 15 17 18 20 23 25 27 28 29 31 33 34 34 33 33 33 32 31 31 32 34 35 38 40 38 38 38 36 32 31 30 28 25 24 26 30 33 33 28 22 19 19 19 18 17 16
33 36 36 32 27 25 23 23 22 21 20 18 18 18 18 18 18 18 18 19 20 21 21 22 24 24 21 19 19 18 17 18 17 14 13 12 11 12 13 14 16 16 17 19 22 24 25 26 27 29 30 31 32 31 31 30 29 31 33 33 34 37 40 39 38 38 35 32 31 28 24 24 25 27 30 31 29 25 22 20 19 19 19 18 17
34 37 34 29 25 24 24 24 24 23 21 19 19 19 20 20 20 20 19 20 20 21 20 21 23 23 21 19 18 17 17 18 18 15 13 12 11 11 12 13 14 15 16 17 19 21 22 22 24 25 27 28 29 29 28 27 28 29 31 33 34 37 39 39 38 38 36 34 31 27 24 25 27 28 29 29 27 25 24 22 21 21 19 18 18
34 34 30 26 24 24 24 24 24 23 21 19 19 19 20 21 21 21 21 21 21 21 21 21 22 23 22 20 18 17 16 18 18 16 14 13 12 11 11 12 12 13 14 16 18 19 18 18 19 22 25 26 26 24 24 25 27 30 32 33 36 40 41 40 40 39 37 33 30 27 26 26 27 29 30 28 27 26 24 21 20 20 20 19 18
32 29 26 25 24 23 23 24 24 21 19 18 18 19 20 21 21 21 21 21 21 21 22 22 23 23 23 22 20 17 15 17 18 17 14 13 12 11 10 11 10 11 12 14 16 18 18 17 16 17 19 21 20 20 22 25 28 31 34 37 39 42 42 41 41 40 35 30 28 28 27 27 29 31 31 29 27 24 22 20 19 19 18 18 18
29 26 25 24 23 22 22 23 22 19 18 17 17 19 20 21 21 20 20 20 20 21 22 22 22 23 23 21 20 18 16 16 18 18 16 14 12 11 9 9 8 9 10 12 14 15 16 18 17 16 17 17 17 18 21 24 27 31 38 44 46 46 44 40 39 38 33 30 30 31 32 32 33 33 30 27 24 22 20 19 17 16 17 18 18
26 24 24 24 22 21 21 20 19 18 17 17 18 20 21 20 19 19 19 20 19 21 22 22 23 23 22 20 19 19 18 17 18 19 17 15 13 11 9 8 8 7 7 9 11 12 13 15 16 17 18 18 17 18 19 21 24 28 34 39 39 39 39 37 36 35 33 33 34 33 32 31 28 26 23 21 20 19 19 18 17 16 16 17 16
25 24 24 23 21 20 19 18 18 18 18 19 21 21 20 19 18 18 19 19 19 20 22 22 22 22 21 20 20 20 20 19 19 19 18 17 15 13 10 8 7 6 5 6 8 10 10 11 12 13 15 16 16 16 17 19 22 24 27 27 24 23 27 32 33 32 31 30 29 26 23 22 21 19 19 18 17 18 18 18 18 18 16 14 14
25 24 24 22 20 20 19 19 18 18 19 21 21 20 18 17 16 16 17 18 19 21 21 20 21 21 20 21 21 22 22 20 18 17 17 17 16 14 11 7 5 4 3 4 6 7 7 7 7 7 10 14 15 13 12 15 17 19 23 24 22 23 27 29 28 26 24 23 22 20 19 19 18 18 18 18 18 18 18 17 17 18 16 15 14
24 23 22 21 20 20 20 19 18 18 20 21 20 18 16 15 14 14 15 18 19 19 18 18 20 21 21 21 23 24 22 19 15 15 16 16 16 14 12 8 5 3 3 3 4 4 5 5 5 3 5 11 11 8 8 9 11 13 17 19 21 24 25 24 22 21 20 19 19 19 19 18 18 18 19 19 19 19 18 17 17 16 15 14 13
23 22 21 21 21 21 21 20 18 18 20 19 17 15 14 12 11 11 14 17 18 17 16 16 19 20 21 22 23 22 18 14 11 13 15 15 15 14 12 10 7 5 4 3 3 3 3 4 2 2 6 10 11 11 10 9 9 11 14 16 19 20 20 21 22 21 20 19 20 20 20 19 18 18 19 19 19 18 18 18 17 16 15 15 14
23 22 22 21 21 21 21 20 19 19 19 17 15 13 13 11 10 9 10 12 13 14 14 14 15 17 19 21 21 17 13 10 10 13 15 15 14 13 12 12 10 7 5 3 2 2 3 4 1 5 9 10 10 10 11 10 10 11 13 15 16 17 18 20 21 20 20 20 21 20 20 20 19 18 18 18 18 17 17 17 17 17 17 16 15
25 25 24 22 22 22 21 20 19 19 18 15 13 12 11 11 10 9 9 9 10 11 11 12 12 14 16 19 19 16 13 11 11 14 16 15 13 12 12 12 12 9 6 4 3 2 5 6 4 5 9 9 10 10 10 10 10 11 13 15 15 16 17 17 17 17 18 20 21 21 20 19 18 18 17 17 16 16 15 15 16 18 18 17 15
26 26 24 23 22 22 20 19 19 18 17 15 13 11 11 12 12 11 10 10 10 10 10 10 11 11 13 15 17 17 14 11 12 16 17 15 13 11 11 11 10 8 7 6 4 3 6 7 6 6 8 10 13 16 15 12 10 11 15 18 17 16 16 16 15 16 18 20 21 20 19 17 16 16 16 16 15 15 14 14 15 17 18 17 16
26 25 24 24 23 21 20 20 20 18 16 14 13 12 12 13 14 14 12 10 10 11 12 11 9 9 10 12 14 15 13 11 13 16 15 13 11 10 8 8 7 6 6 6 6 5 7 9 9 8 8 9 13 18 19 16 14 15 18 20 18 17 17 17 17 17 17 18 18 17 16 14 14 15 17 16 15 13 12 13 16 17 17 16 15
26 25 25 24 23 21 21 21 20 17 14 13 13 13 13 14 15 15 13 11 10 12 13 13 11 9 10 12 14 15 13 12 14 15 13 11 10 9 7 6 5 5 5 5 5 6 8 10 11 11 10 10 13 16 16 15 15 18 20 18 16 17 17 16 16 16 15 14 13 13 13 13 15 17 18 16 15 12 10 11 15 17 16 15 14
26 26 26 25 23 23 23 22 18 15 14 13 14 13 13 15 17 16 14 13 13 13 14 14 13 11 10 12 14 15 13 12 13 13 11 10 9 9 8 6 5 5 5 5 5 7 8 9 11 13 13 13 16 17 15 14 15 17 19 17 16 17 17 17 16 15 13 13 12 11 13 15 16 18 18 15 13 11 9 11 15 16 15 13 12
27 28 27 25 24 24 23 20 16 14 14 14 14 14 14 17 18 16 14 15 15 15 15 15 14 13 12 12 14 15 14 12 11 10 9 9 9 9 8 7 6 6 6 6 6 7 8 8 10 12 14 15 16 17 16 14 14 14 16 17 17 17 17 17 17 15 13 13 11 12 14 15 15 16 15 13 11 9 8 9 12 14 13 11 10
27 28 27 25 24 24 22 18 14 14 15 15 15 15 16 18 18 17 15 16 16 16 16 16 15 14 14 14 14 14 14 12 10 9 8 9 10 10 9 8 8 8 8 7 8 9 8 8 10 11 13 13 14 15 15 15 14 14 14 16 16 16 16 17 16 15 14 13 12 12 14 14 14 13 13 12 10 7 6 7 10 11 10 8 7
25 26 25 24 25 25 22 17 15 15 16 17 16 16 16 17 17 16 16 16 17 17 17 16 15 15 16 15 14 14 14 13 11 9 9 9 10 11 11 10 10 11 10 9 10 10 10 10 11 11 12 13 15 16 15 15 15 14 14 14 15 15 15 15 15 13 13 13 13 14 14 14 14 13 12 12 11 8 7 8 10 9 7 5 5
24 24 24 24 25 25 23 19 16 15 16 16 16 18 18 17 16 16 16 16 18 18 18 16 15 15 16 15 14 15 15 14 12 11 10 10 11 12 13 13 13 13 13 13 12 12 12 13 12 13 14 16 18 18 16 15 14 14 14 15 17 17 16 16 15 12 12 14 15 15 15 14 14 14 13 13 12 9 8 10 10 8 6 5 5
23 23 24 26 26 24 22 19 16 15 15 15 16 19 20 18 17 16 15 16 18 19 18 17 16 16 16 15 15 15 16 16 14 12 12 12 12 14 16 16 15 14 15 16 16 16 16 15 15 15 16 17 18 17 16 15 14 13 13 13 15 17 17 16 15 13 12 13 15 16 15 15 15 15 14 14 13 10 9 9 8 7 7 7 7
23 23 25 27 26 23 21 19 17 17 16 15 16 18 19 19 19 18 16 17 18 18 17 17 17 16 16 16 16 17 17 17 16 14 14 14 14 16 18 17 16 16 17 19 19 19 19 18 18 17 17 17 16 16 15 15 15 15 15 14 14 15 14 14 14 14 13 12 13 14 16 16 15 15 14 14 13 11 10 9 9 8 8 8 9
25 24 25 27 25 23 22 20 19 17 16 15 17 17 17 18 20 20 19 18 18 17 17 17 16 15 16 16 17 18 19 19 19 18 17 17 17 18 19 19 17 17 19 21 21 22 21 20 19 18 17 16 16 16 17 17 16 16 17 17 16 15 14 14 14 14 14 13 13 14 15 16 16 15 15 14 13 12 11 11 11 10 9 10 10
26 25 26 26 25 24 23 22 19 17 16 16 17 18 17 17 19 20 20 18 17 17 17 17 15 15 15 15 16 18 21 22 22 22 21 20 20 20 20 20 19 19 21 23 24 24 22 20 19 17 15 14 16 18 20 19 18 17 18 18 18 18 18 17 16 16 16 15 15 15 15 16 17 17 17 17 15 14 13 13 13 12 12 12 12
27 26 27 27 25 24 23 22 20 19 17 15 17 19 19 17 17 20 20 18 17 17 16 16 16 15 14 14 15 16 20 22 23 23 23 22 21 21 21 21 21 22 23 25 26 26 24 21 20 17 15 15 17 19 20 20 19 17 17 18 19 19 20 20 19 19 18 17 17 17 18 17 18 19 20 20 19 18 17 16 16 15 15 14 14
29 28 28 27 26 25 24 23 22 21 19 17 18 20 19 17 17 19 20 20 19 18 17 17 17 15 14 14 13 13 15 18 20 22 23 22 22 22 22 22 22 22 24 25 27 27 26 24 22 20 18 17 17 17 18 20 20 19 18 18 19 19 19 19 19 20 20 19 19 18 18 18 18 19 20 20 21 21 20 19 19 18 18 17 16
30 30 29 28 27 26 26 25 23 22 21 21 21 21 19 17 17 19 21 21 21 20 19 20 19 17 15 15 13 12 13 14 16 19 21 21 22 22 22 22 22 22 23 25 27 28 28 26 24 22 21 19 18 16 17 19 22 22 21 20 20 20 21 20 19 18 19 20 20 18 17 17 17 16 17 18 19 20 20 20 20 19 19 18 18
30 31 30 30 29 28 28 26 24 22 22 23 24 23 20 17 17 18 19 21 22 22 21 20 19 18 16 15 14 14 13 13 14 16 18 19 21 22 22 22 22 21 22 23 25 28 29 29 27 25 23 21 19 17 17 18 22 25 25 23 21 20 20 21 21 19 19 19 19 18 17 17 17 16 17 17 17 18 17 18 18 19 19 20 21
31 32 32 32 31 30 29 27 25 24 23 23 23 23 21 19 18 18 17 18 20 22 23 21 19 17 17 17 17 17 15 14 13 14 15 17 19 20 21 22 21 21 21 22 23 26 30 31 30 27 25 23 22 20 18 17 19 22 25 24 22 19 18 19 20 19 18 17 17 16 16 16 16 16 16 16 16 17 17 17 18 19 21 22 23
32 32 33 33 32 32 31 29 27 26 25 24 24 23 22 21 21 21 20 18 18 20 23 24 22 20 19 19 19 19 18 16 15 14 14 15 16 18 20 21 21 21 21 21 22 24 29 32 32 29 27 27 26 23 20 18 17 20 24 26 24 21 18 17 17 17 16 15 14 13 14 14 14 14 15 15 16 17 18 18 20 21 22 22 22
31 32 33 33 34 33 33 31 29 28 28 27 26 25 24 23 22 23 23 22 21 20 21 22 24 23 23 22 21 21 19 19 18 17 16 15 15 15 17 19 21 22 22 21 21 23 26 31 32 30 28 29 29 26 22 19 18 20 25 28 27 23 19 18 17 17 16 16 13 12 12 12 13 13 14 15 16 17 18 19 20 21 21 21 21
30 31 31 33 34 34 34 33 31 29 29 29 28 27 26 25 24 24 23 23 24 23 22 21 22 24 25 24 24 23 22 21 20 19 18 18 17 16 16 17 19 21 22 22 22 23 24 28 32 32 30 30 30 27 22 20 21 23 26 30 30 26 21 19 18 18 18 18 17 16 15 14 14 14 15 16 17 18 18 19 20 20 20 21 22
30 30 30 31 33 34 35 35 33 31 30 30 30 29 28 28 27 26 25 24 24 25 25 24 23 24 25 25 25 25 25 24 23 22 21 20 19 19 19 19 19 19 20 21 23 24 24 26 28 30 31 31 30 27 23 21 22 24 27 30 31 28 23 21 20 19 19 20 21 21 21 19 18 17 17 18 19 20 19 20 20 21 21 23 24
31 30 30 31 32 33 35 35 34 32 30 30 31 31 30 30 29 29 28 27 25 24 25 25 25 25 25 25 25 25 25 25 24 24 23 23 22 20 20 21 21 21 21 21 22 23 25 26 26 27 29 31 31 28 25 23 24 25 27 30 32 30 26 24 22 21 21 21 22 22 23 22 20 19 19 20 21 22 22 22 23 23 24 25 26
32 31 31 31 31 31 33 34 35 33 30 30 31 31 31 31 31 30 30 29 28 26 25 25 25 25 25 25 24 24 24 25 24 24 24 24 23 23 22 22 22 23 23 23 23 22 23 25 26 27 29 31 33 32 30 28 26 26 27 29 32 33 30 27 26 24 24 23 24 24 24 23 21 20 21 22 23 23 24 25 26 26 27 27 27
33 33 32 32 31 31 31 33 35 34 32 31 30 30 30 30 30 29 29 29 29 28 27 26 25 26 26 25 24 23 23 24 25 25 24 24 24 24 24 24 24 24 24 24 25 24 23 24 25 27 29 32 33 34 33 32 31 29 28 29 32 34 33 30 28 28 27 26 25 25 25 24 23 22 23 24 25 25 26 27 28 28 29 29 30
Wind_Direction
230 234 233 232 235 241 247 252 254 253 251 250 251 249 248 247 248 251 253 254 255 256 255 254 257 260 260 258 258 256 253 251 250 247 246 247 248 249 249 250 251 254 254 255 255 254 252 249 249 250 251 249 245 241 240 238 236 236 236 238 241 246 250 253 256 253 250 252 252 247 242 239 235 238 244 243 242 245 246 246 242 234 236 241 247
227 229 230 232 237 241 247 251 252 251 246 244 246 247 248 248 248 248 249 252 255 257 257 255 255 257 258 257 256 255 255 254 254 252 250 250 250 250 249 248 249 251 252 252 253 253 252 250 249 249 251 252 248 243 240 239 238 237 238 239 241 246 250 254 258 255 249 249 252 251 248 245 238 236 240 242 242 245 246 242 229 221 228 236 243
223 225 225 227 230 231 234 240 244 245 242 241 244 246 248 249 249 250 251 252 254 256 257 257 258 259 259 260 259 258 258 258 258 259 258 255 254 254 253 252 252 253 253 253 252 252 252 252 251 250 249 250 247 243 239 238 238 238 240 241 243 246 250 253 255 255 251 249 251 254 252 246 239 236 237 241 243 244 243 235 220 218 227 231 235
220 222 219 220 223 220 219 227 234 236 235 237 241 243 246 248 250 253 254 254 255 258 259 260 261 262 263 264 265 264 262 261 261 262 262 262 260 259 258 257 257 257 256 255 253 252 252 252 251 250 248 247 245 242 240 239 239 239 240 241 242 245 249 252 252 254 254 249 248 254 255 248 240 235 235 237 239 240 236 223 212 216 226 226 228
216 218 217 221 223 216 213 218 225 231 235 240 246 250 254 256 258 260 259 257 256 257 260 262 263 263 264 265 267 267 266 264 263 263 264 264 264 263 263 262 261 261 260 258 255 252 252 253 253 251 247 245 243 242 240 240 240 241 240 239 240 243 247 250 252 255 255 252 246 247 252 250 238 229 233 237 235 231 224 214 212 214 216 220 227
213 215 217 218 215 209 211 217 225 237 246 251 257 262 265 267 269 270 267 261 257 256 259 262 264 265 266 267 268 268 268 266 265 265 265 266 266 266 266 267 267 267 266 264 260 256 254 253 251 249 247 244 243 242 241 241 243 242 239 238 238 240 244 248 252 254 255 252 247 243 246 249 239 225 227 235 233 229 220 207 201 202 208 218 230
211 209 210 207 204 206 211 218 227 239 247 251 256 262 268 271 271 271 268 261 257 258 260 261 263 265 267 269 270 270 271 270 268 266 266 266 267 267 268 268 268 268 269 269 266 264 260 255 250 246 246 246 245 243 242 242 245 245 243 242 240 240 242 246 250 251 250 246 243 242 244 248 244 227 220 226 228 227 223 211 198 197 205 216 229
208 205 207 204 202 207 213 218 227 236 243 249 256 261 266 267 264 263 261 258 256 257 259 262 265 267 270 272 275 277 278 276 272 268 266 266 267 267 267 267 267 267 268 269 270 269 266 260 253 247 246 247 247 246 245 245 246 246 246 246 245 243 242 244 247 248 245 239 238 241 241 242 245 233 217 218 219 218 221 221 213 209 211 215 226
213 212 211 207 205 210 214 219 227 236 243 250 256 260 260 257 255 254 252 253 255 258 262 268 272 276 278 279 281 285 285 282 277 271 267 265 265 266 266 267 268 269 269 269 269 268 268 265 260 253 249 247 247 248 247 248 248 248 247 247 246 245 244 243 244 244 239 235 236 238 235 236 243 236 218 214 217 217 217 219 217 215 215 219 228
217 217 217 216 216 217 219 224 231 237 243 249 254 256 252 246 246 248 248 251 257 263 272 281 286 289 290 288 288 289 290 285 277 270 265 263 262 264 265 267 269 271 272 272 271 270 268 266 264 261 256 252 250 248 247 248 248 247 248 248 245 245 244 242 242 240 237 237 237 233 229 232 240 235 225 221 219 217 216 216 215 215 214 214 220
217 218 220 222 221 220 221 225 232 237 242 247 249 247 243 243 245 248 250 255 261 270 281 289 293 295 294 294 291 288 287 283 273 265 263 263 263 264 265 267 269 271 273 274 274 273 270 267 264 262 260 258 255 252 249 248 248 247 247 248 247 246 244 242 241 241 238 238 238 232 229 233 236 231 226 223 218 216 217 215 215 219 220 218 221
218 218 220 220 218 217 220 225 231 235 239 244 244 239 237 242 247 248 250 256 265 276 285 289 293 294 295 295 291 284 280 275 268 263 262 265 267 267 267 267 268 269 271 273 273 273 270 267 264 260 258 258 257 256 251 248 248 248 246 247 247 246 245 244 244 243 239 237 237 234 231 233 232 226 222 220 218 217 215 213 216 223 228 229 230
220 219 218 215 214 216 223 231 232 232 235 239 237 233 233 237 242 245 251 262 271 281 287 289 291 291 291 291 288 281 273 266 262 262 264 267 271 273 272 270 268 267 267 268 269 269 268 265 262 259 256 254 253 254 252 249 247 246 245 245 245 246 246 246 247 245 241 240 240 235 229 230 231 226 222 222 222 217 211 211 218 226 231 232 229
222 219 216 214 215 221 228 231 228 227 228 227 226 228 232 235 240 246 255 265 274 282 287 289 290 289 288 286 284 280 273 264 258 260 265 269 274 278 279 276 273 269 265 263 264 265 266 264 262 259 255 252 251 250 251 250 248 247 245 243 242 243 243 244 245 243 239 239 240 235 230 231 232 228 224 224 223 219 215 216 220 225 229 226 219
226 221 218 217 219 224 226 223 222 222 221 221 226 232 234 237 242 249 256 266 276 282 285 288 290 288 284 282 281 280 273 261 253 254 261 267 275 283 286 285 282 277 269 264 264 266 269 268 265 262 257 252 250 250 250 250 248 247 246 243 241 241 241 240 240 237 231 231 233 231 230 231 230 226 225 224 221 217 218 220 222 226 226 221 215
227 219 217 218 220 221 219 217 218 219 221 225 231 234 236 241 246 252 260 269 277 281 283 288 292 289 282 280 281 280 269 256 248 249 257 266 276 285 291 294 293 291 285 275 266 265 268 270 268 265 259 253 251 252 253 252 249 247 246 245 243 240 237 235 234 230 227 226 224 222 224 226 222 220 222 220 216 211 211 213 218 224 225 220 215
218 214 214 216 217 216 216 216 217 219 226 232 236 238 240 244 249 255 263 270 276 281 285 290 293 289 281 278 283 284 271 252 244 247 255 264 274 284 291 297 299 301 302 295 281 268 265 266 266 262 258 255 254 254 255 255 253 250 247 244 241 238 234 230 227 223 222 220 214 211 216 218 216 215 215 213 213 214 215 216 220 227 230 225 214
210 210 211 213 215 216 217 218 220 224 232 237 241 244 244 247 252 259 266 273 278 283 287 290 290 285 279 278 283 288 273 252 243 245 252 261 271 281 289 297 303 307 310 309 300 286 274 269 266 259 254 252 253 255 258 257 256 255 251 242 235 231 228 224 218 215 213 208 203 205 208 207 208 210 208 207 212 217 220 225 231 234 233 228 217
207 208 212 213 215 218 218 220 224 229 237 241 245 248 249 251 257 263 269 275 279 283 286 288 285 281 278 278 282 286 276 260 250 246 247 256 264 273 285 295 305 314 316 313 308 299 291 285 280 270 258 252 253 260 262 260 259 253 244 238 231 225 220 216 210 203 199 197 199 203 204 201 202 204 203 204 209 215 221 229 235 235 230 224 218
209 211 214 215 215 216 217 221 226 232 240 245 249 250 251 253 259 265 269 273 277 282 285 285 282 279 277 277 281 284 281 274 265 253 246 249 256 264 278 290 298 311 316 314 311 302 293 288 286 279 270 265 263 262 259 259 259 247 230 223 220 212 205 201 199 196 198 203 205 203 201 198 198 198 199 201 206 213 219 221 223 225 224 219 215
212 213 214 213 213 214 216 223 230 238 244 247 248 248 250 254 259 263 266 271 277 282 283 282 278 274 271 271 275 277 279 281 276 263 250 247 250 256 267 282 293 302 310 317 317 307 293 288 284 277 273 269 262 258 251 243 241 232 215 205 203 198 191 191 195 198 202 204 199 194 192 192 190 190 193 198 205 211 211 207 205 209 215 218 216
213 212 211 212 213 216 220 228 235 240 242 242 243 245 248 253 257 261 267 273 277 279 279 278 272 265 262 263 268 272 277 282 280 267 255 249 250 253 259 271 287 296 304 320 323 316 306 295 284 275 269 257 243 241 237 225 220 215 205 200 206 209 202 196 194 193 192 189 187 186 187 187 186 186 190 195 199 201 199 198 199 201 204 211 217
210 210 211 215 219 221 225 231 235 239 239 239 240 243 248 254 258 266 273 275 274 274 275 273 266 259 258 261 265 270 276 279 275 266 259 255 252 251 252 256 269 283 294 307 312 315 312 293 278 274 257 237 224 214 211 213 214 211 207 206 211 212 203 191 183 181 179 177 178 182 184 186 187 189 191 191 191 192 193 195 198 200 202 206 209
211 213 216 221 223 224 226 231 235 238 238 237 238 244 252 258 267 277 277 271 268 269 270 266 259 255 256 262 268 273 274 271 266 264 265 261 255 251 245 239 241 251 267 281 285 295 300 282 272 278 232 209 194 167 159 182 196 201 202 201 197 196 193 186 178 179 179 174 174 179 181 184 188 189 187 185 186 189 191 192 195 199 204 206 201
215 217 220 223 225 227 230 233 235 236 234 234 239 249 258 267 281 288 278 267 265 268 268 264 259 258 261 265 270 271 267 261 263 273 275 266 257 249 238 228 225 228 241 256 253 262 291 290 264 162 153 153 142 126 124 144 171 187 191 192 190 187 185 181 176 176 178 177 177 178 176 175 179 182 181 182 186 189 189 189 189 190 191 189 183
220 222 225 227 228 231 233 233 232 230 230 234 243 255 265 274 288 295 284 273 268 268 268 266 265 265 264 263 264 263 257 258 276 289 286 272 256 244 235 227 224 221 219 219 219 234 265 277 223 154 151 143 132 127 126 130 151 173 179 181 182 178 176 177 177 176 175 173 172 170 167 167 172 176 178 180 183 185 184 184 183 181 180 178 174
223 224 226 228 228 231 234 233 230 226 228 236 247 258 268 275 279 285 289 282 271 265 265 266 270 272 265 258 258 261 262 271 290 297 292 276 252 238 234 230 226 229 225 203 187 224 248 254 238 181 171 166 157 152 145 138 147 164 167 167 167 168 170 173 175 173 170 166 164 164 164 166 169 171 173 176 176 176 178 180 179 176 175 175 174
224 226 228 228 230 233 234 233 229 227 233 242 250 258 268 271 270 276 286 287 278 271 268 270 275 277 266 255 255 260 263 276 296 299 290 272 248 235 235 233 232 243 243 216 201 228 240 238 229 198 184 182 175 165 157 155 163 168 163 158 156 158 161 164 166 166 164 163 165 166 164 164 165 166 168 167 166 167 170 174 177 176 174 176 179
227 229 230 230 231 234 233 230 229 232 238 246 250 253 261 267 269 274 280 283 281 277 275 281 288 285 270 261 259 260 264 280 295 293 281 263 245 231 226 227 233 248 244 224 224 240 235 228 220 200 183 184 178 163 152 153 161 161 156 155 157 161 165 167 167 165 162 163 167 170 170 169 168 166 164 159 156 158 161 168 174 175 174 177 179
230 231 231 230 231 232 230 228 229 233 240 247 249 251 257 264 269 271 272 275 275 270 270 279 288 287 277 272 268 265 266 279 289 284 271 256 242 223 209 209 218 236 249 243 234 226 215 216 217 205 189 186 182 170 162 163 165 162 159 161 168 172 170 170 170 168 166 171 178 181 183 181 173 167 162 156 151 147 145 158 172 176 175 177 175
231 231 229 229 230 231 229 226 227 234 242 247 248 251 259 264 264 264 266 270 270 265 264 269 272 271 271 273 271 268 268 277 285 281 266 251 236 216 203 201 207 234 268 270 236 207 195 199 206 203 195 190 184 179 177 175 170 167 168 171 179 181 176 175 178 179 178 181 184 184 183 179 172 166 161 154 148 142 140 155 172 180 183 179 171
232 231 229 229 230 229 226 223 226 236 241 243 245 250 257 262 260 258 261 268 271 268 265 264 262 261 264 270 272 270 268 272 282 280 264 248 232 213 205 207 216 238 260 255 226 206 194 190 195 196 193 190 187 184 181 174 172 177 181 181 181 182 180 181 185 186 184 183 181 176 171 169 167 166 163 157 154 152 152 161 172 181 183 176 167
233 232 231 230 226 222 218 219 227 236 238 239 245 252 258 260 260 260 262 267 271 270 268 265 261 259 263 268 271 271 266 264 272 278 266 249 233 217 211 217 229 240 244 231 215 207 195 182 182 188 190 188 185 181 177 174 176 182 185 185 184 182 182 185 187 188 188 188 184 175 169 167 167 170 171 169 169 175 185 185 182 180 177 171 166
233 234 235 232 225 219 217 222 232 237 236 237 242 251 256 257 257 259 264 270 273 273 271 268 263 262 264 266 266 265 263 260 264 270 267 254 239 226 220 224 230 231 224 210 205 202 191 176 170 175 178 177 177 179 181 184 188 189 190 192 192 188 186 188 191 194 199 199 193 183 179 179 181 182 182 181 183 197 214 207 197 192 188 185 186
234 238 239 235 228 223 223 230 237 236 234 236 241 248 252 250 247 252 262 272 279 279 276 273 268 266 266 265 260 258 259 259 260 260 256 251 244 233 226 227 231 225 210 198 193 190 182 174 168 167 170 174 180 187 194 197 200 201 201 201 200 200 201 202 201 201 205 205 198 191 188 192 194 194 192 192 199 212 219 210 204 205 211 217 224
238 240 237 232 228 226 228 233 237 235 237 244 248 250 251 249 245 248 258 270 280 280 275 270 268 268 267 263 256 251 252 254 256 255 249 246 243 236 231 232 233 223 205 192 187 184 180 175 170 169 174 181 188 194 199 198 197 197 196 194 195 198 200 199 198 197 201 205 203 197 194 197 201 201 202 206 213 220 219 214 214 220 227 237 243
240 240 235 228 225 227 232 235 234 234 239 245 245 246 251 251 247 245 252 264 274 275 266 260 264 271 274 270 260 250 247 248 249 248 245 243 240 235 234 236 236 222 203 191 187 185 181 176 174 175 180 187 193 198 201 199 196 195 193 192 194 196 195 192 192 194 197 202 204 203 202 201 201 200 201 206 213 218 219 222 226 231 238 248 252
240 238 233 227 227 231 235 233 231 233 235 235 236 243 254 254 247 243 247 257 267 267 258 254 264 280 288 284 269 254 247 245 243 242 242 240 236 231 230 232 232 221 205 194 191 189 185 182 183 185 190 199 208 214 215 213 209 206 203 203 205 209 209 206 204 204 205 206 206 205 206 206 206 205 206 210 215 220 224 229 232 236 244 253 259
238 236 232 229 230 233 232 229 230 234 234 234 238 245 252 253 247 242 243 252 261 259 250 250 264 283 294 291 275 257 247 244 242 242 242 241 237 231 227 226 227 219 207 199 197 196 194 194 195 198 206 218 227 229 226 221 217 215 214 213 215 218 220 220 218 216 214 215 216 214 212 214 215 216 217 219 222 227 231 235 239 243 252 262 268
236 234 231 230 231 231 229 229 233 235 235 239 244 244 243 248 249 243 240 247 255 254 249 251 264 280 291 294 286 268 254 248 246 244 242 241 238 233 227 223 222 218 211 205 203 203 203 204 205 210 219 228 232 232 228 221 216 217 219 219 219 222 224 227 228 226 223 223 224 223 223 225 225 224 225 227 229 233 238 243 247 251 258 266 271
239 236 233 232 232 231 230 232 236 237 238 242 243 238 238 245 249 243 241 245 252 254 254 256 264 275 283 287 291 284 268 258 252 247 244 243 240 236 231 225 221 219 217 212 210 210 211 211 212 217 222 225 228 232 230 223 218 220 223 223 224 226 227 229 234 235 233 230 226 222 221 225 227 229 231 232 232 234 238 243 247 251 256 262 267
241 238 235 233 232 231 232 235 237 237 238 239 237 234 236 241 244 242 243 246 250 252 255 256 260 267 272 275 281 282 275 265 257 251 247 246 243 239 233 228 225 225 225 223 220 218 217 216 217 220 224 226 227 231 233 231 228 229 231 232 233 234 233 234 235 232 226 223 221 218 220 226 232 237 240 238 236 238 241 243 246 250 254 260 265
243 242 241 238 235 234 236 237 236 235 236 236 235 235 236 239 242 243 244 246 247 249 252 255 256 259 263 266 267 267 268 267 262 255 251 250 247 243 236 232 231 232 232 232 230 226 223 221 222 224 228 229 228 227 232 236 235 233 233 233 231 229 229 230 229 224 218 216 219 223 229 238 245 248 247 245 245 246 248 249 249 252 256 260 263
244 245 244 242 239 238 238 237 235 235 234 234 235 237 238 237 239 240 240 242 244 245 248 252 255 255 256 259 259 257 259 264 265 263 258 253 250 247 242 238 238 238 237 236 234 231 227 225 225 227 230 230 228 227 230 236 236 233 228 223 220 219 219 220 220 220 219 221 228 235 242 248 254 255 255 255 255 255 254 254 253 254 256 259 262
245 246 246 244 242 239 238 236 236 236 235 233 235 238 238 236 236 237 237 240 245 245 244 247 250 251 253 255 256 256 257 259 262 265 264 258 252 249 245 243 243 243 241 239 236 233 230 228 227 228 230 230 228 229 232 236 236 232 225 220 222 228 233 230 226 225 228 234 241 248 251 255 259 261 260 261 261 260 258 257 256 256 257 259 262
245 247 247 247 244 241 239 238 236 235 234 234 237 239 239 237 237 237 238 241 246 248 244 243 245 247 250 252 254 255 256 257 257 259 261 260 257 252 246 244 244 244 243 241 238 235 232 230 229 229 231 230 229 230 234 237 236 230 225 226 232 241 245 243 239 239 241 242 243 247 253 258 260 258 256 257 258 258 258 257 257 258 259 260 261
245 247 249 249 248 245 243 240 237 235 235 236 239 242 242 240 239 239 240 242 246 249 248 245 244 245 248 250 252 253 256 257 257 257 258 258 259 256 251 246 243 242 241 241 239 237 234 231 230 231 232 231 229 229 231 235 234 230 227 231 237 242 244 244 245 248 249 246 245 250 259 265 265 260 255 253 253 254 255 255 256 258 259 259 260
244 247 249 250 250 248 245 241 237 236 236 238 240 243 244 244 243 242 242 243 245 248 249 248 245 245 247 250 252 253 255 257 258 258 258 257 257 257 254 250 246 243 241 241 240 239 238 236 234 235 235 232 228 227 228 230 231 230 229 231 235 239 243 246 249 252 253 252 252 256 260 264 267 266 260 254 252 253 254 255 257 258 259 259 260
243 246 248 250 250 250 248 243 239 238 239 240 241 242 245 246 246 246 246 245 245 246 247 248 246 245 247 249 251 252 254 256 257 257 257 256 256 256 254 252 250 247 245 243 242 242 242 241 241 241 237 232 227 226 227 229 230 231 231 231 233 237 242 247 250 253 256 256 256 257 259 262 266 267 262 256 255 255 256 258 259 259 259 260 261
243 246 248 249 251 252 250 247 243 241 241 242 242 243 244 246 247 248 248 247 246 245 245 246 245 245 246 247 249 251 254 255 256 257 257 257 256 255 254 253 251 250 248 247 247 247 247 247 246 244 239 232 227 228 231 232 233 235 236 234 234 237 242 247 250 252 255 255 254 254 257 260 262 261 259 256 256 256 256 258 259 260 261 262 264
243 245 247 249 250 251 251 249 245 242 242 242 242 243 245 246 247 248 247 247 248 247 246 245 246 247 247 247 248 252 257 259 259 259 260 260 260 259 256 255 253 252 251 249 248 248 249 250 247 244 239 234 231 233 236 236 237 239 240 239 238 238 242 247 250 251 253 255 255 254 255 256 257 256 255 254 255 256 257 258 260 262 264 265 266